Location: *
(50.2903°S, 172.5375°W)
Time: 04:23:23
(UTC+00:00)

Cosmos 1953 - Pass Details

Date: 17 November 2019
Orbit: 539 x 559 km, 82.5° (Epoch: 10 December)

Event Time Altitude Azimuth Distance (km) Brightness Sun altitude
Exits shadow 14:14:53 14° 305° (NW) 1,617 4.1 -10.2°
Maximum altitude 14:17:44 28° 250° (WSW) 1,074 3.6 -9.9°
Drops below altitude 10° 14:21:20 10° 190° (S) 1,878 5.6 -9.5°
Sets 14:23:47 0° 178° (S) 2,786 6.7 -9.2°
